Wind_Speed
55 51 49 46 38 36 41 44 45 47 47 51 56 53 53 53 53 53 52 50 53 52 51 45 46 49 54 53 47 41 42 46 46 41 37 37 40 39 40 40 42 45 50 52 58
56 53 51 51 47 37 35 37 39 43 45 49 52 55 54 53 53 54 52 53 53 53 48 46 49 51 51 44 41 41 46 47 46 45 42 38 38 38 37 38 40 45 47 50 54
55 56 55 52 50 44 39 34 33 39 44 46 49 54 59 59 52 55 54 55 55 51 47 49 51 49 46 44 42 43 49 48 48 45 42 38 37 36 35 35 37 38 42 46 49
60 60 57 55 52 48 44 38 36 34 42 45 47 52 55 56 58 54 53 55 55 52 52 52 53 51 51 48 44 44 46 46 43 40 38 38 37 35 36 36 36 38 40 41 42
61 59 59 58 54 51 48 42 41 39 37 44 47 49 53 56 55 58 52 52 54 52 54 51 49 50 50 48 45 45 46 42 40 40 38 38 38 38 36 37 37 40 40 39 40
58 58 59 58 57 54 51 48 46 47 43 43 47 48 50 53 57 57 60 57 55 53 56 53 51 50 48 47 45 45 47 42 39 39 37 38 37 40 35 37 38 40 42 43 43
59 60 60 62 60 57 55 53 53 50 50 44 47 49 51 49 54 56 55 59 55 53 54 57 48 51 48 46 45 47 46 42 41 39 37 40 38 42 37 39 41 41 42 44 45
62 64 67 65 67 64 63 61 59 58 56 49 47 49 52 50 52 51 55 59 57 48 51 53 50 54 48 47 46 47 48 42 40 42 40 37 41 41 40 40 41 43 45 46 44
70 72 75 75 74 72 71 68 66 63 58 55 49 50 53 53 52 48 56 52 53 57 44 49 54 55 50 51 41 48 50 46 44 39 40 37 42 44 41 42 43 44 45 47 47
70 72 75 78 80 79 79 78 75 70 66 61 51 52 53 55 51 50 51 56 54 52 52 49 46 46 48 50 46 44 46 47 46 42 42 41 43 43 44 45 47 47 47 48 50
46 45 47 52 57 65 75 79 80 74 71 63 55 53 54 58 56 54 53 50 57 52 53 48 48 53 50 50 43 45 46 45 47 47 43 43 44 44 44 46 48 48 48 49 50
42 42 45 45 46 50 52 51 63 69 71 63 55 55 55 58 60 60 56 54 55 55 54 50 51 57 55 54 53 48 45 49 50 51 47 47 44 48 45 46 48 47 46 47 48
42 43 44 44 47 47 49 52 49 54 64 67 58 56 56 59 61 61 60 59 59 52 55 54 55 55 57 56 54 47 50 47 50 49 48 47 46 47 48 47 46 47 47 46 45
41 43 45 44 44 44 46 48 49 46 54 62 59 58 59 61 60 65 64 65 61 62 60 55 57 57 53 50 56 51 52 54 53 56 45 48 45 46 44 44 45 45 45 46 45
45 45 46 45 46 45 43 44 48 46 39 61 64 62 64 63 61 64 69 71 69 66 66 60 62 58 57 55 55 45 53 54 56 52 50 52 52 49 49 48 44 44 44 45 46
49 47 47 46 45 43 44 42 41 44 38 59 67 68 68 65 65 66 69 71 73 71 67 66 66 63 60 61 59 61 57 52 51 50 52 56 57 51 55 52 47 45 45 45 45
54 53 50 48 47 45 44 44 39 37 44 55 71 72 72 70 67 70 68 72 76 76 73 68 67 69 67 65 64 65 63 62 58 56 51 59 60 55 57 58 53 48 46 47 45
59 58 56 55 53 49 45 42 41 41 50 52 73 77 77 77 74 71 72 70 74 79 78 79 71 71 70 69 69 68 67 64 63 64 61 61 57 59 59 59 56 51 48 48 48
64 62 62 61 60 55 49 41 45 47 48 58 64 82 82 81 81 78 74 74 75 76 80 81 79 73 75 76 74 70 70 67 69 67 63 63 62 59 56 56 52 49 49 50 50
68 69 67 66 65 62 56 51 50 55 53 56 66 70 87 88 87 85 81 77 76 77 78 80 82 82 75 76 76 71 70 72 71 72 69 63 60 62 60 54 52 49 49 51 53
72 74 72 71 72 70 64 60 57 58 60 60 62 71 77 94 93 90 88 83 81 81 80 78 80 79 79 74 73 75 74 75 72 69 66 62 60 64 64 59 55 51 49 50 55
78 76 78 75 78 76 72 69 66 61 63 62 65 69 79 86 102 98 93 91 88 87 84 82 81 78 79 77 76 73 74 75 73 69 68 67 63 66 67 65 56 52 47 48 53
81 80 81 81 83 83 79 75 72 65 67 65 67 71 78 85 87 105 101 96 94 92 89 88 84 81 78 79 78 75 74 75 77 75 70 69 63 67 68 65 58 51 47 50 50
80 79 79 82 85 84 84 80 79 72 71 73 71 74 77 83 89 89 107 105 101 98 96 94 89 84 82 81 80 78 78 77 76 73 69 65 66 67 69 66 60 52 48 54 49
79 77 78 78 82 84 84 82 81 79 77 73 74 79 82 83 91 91 96 108 108 105 103 99 94 92 89 87 83 80 79 79 75 71 68 63 63 64 68 66 61 51 50 52 50
79 80 79 75 78 83 86 86 82 79 78 74 75 80 82 86 94 93 94 96 108 111 107 103 101 98 95 95 90 85 82 77 74 69 61 60 61 68 72 65 60 50 50 49 48
82 83 84 79 81 81 80 80 77 74 71 72 75 81 86 91 91 91 95 93 93 103 108 108 104 101 100 99 96 85 83 82 78 72 68 62 64 69 68 64 59 49 51 48 48
Wind_Direction
287 285 277 273 275 275 271 268 263 256 253 250 250 248 247 246 246 247 242 244 243 246 251 251 248 246 248 248 244 249 256 254 249 256 260 255 254 254 255 254 252 250 248 248 247
281 282 279 273 272 272 274 275 266 260 255 249 248 246 244 246 246 243 245 242 242 246 248 244 244 249 246 241 247 249 250 256 250 252 256 257 254 255 255 252 250 250 249 248 248
279 278 278 272 268 269 270 274 274 264 262 254 246 244 244 243 244 241 242 242 243 244 244 246 245 241 248 246 251 249 252 253 247 249 256 254 252 254 255 254 251 250 247 246 246
276 278 273 270 268 263 267 268 273 276 262 257 252 243 243 244 239 243 242 241 242 242 240 247 239 243 251 247 251 253 256 247 244 247 248 253 255 251 253 252 248 245 245 244 244
277 273 269 268 267 263 262 264 272 274 273 260 254 247 244 239 241 237 236 239 241 239 237 243 242 247 247 244 247 253 249 241 241 246 247 253 255 251 251 252 250 246 240 240 241
274 272 268 266 265 262 260 263 267 274 274 265 255 251 246 242 240 239 234 237 238 238 234 242 240 245 248 244 244 250 243 239 241 245 247 253 254 252 250 252 252 249 245 242 244
271 269 267 265 263 262 261 262 266 269 273 271 257 248 246 241 240 240 234 235 237 236 234 239 241 244 244 242 242 247 245 242 243 246 248 253 252 253 249 249 253 251 249 247 247
268 267 265 262 263 260 260 260 263 263 268 267 264 249 245 240 238 239 237 237 239 238 240 239 238 242 237 239 239 247 245 242 246 249 250 250 252 256 252 250 252 255 252 249 250
269 266 264 262 261 261 261 260 259 261 262 266 265 251 242 240 238 237 232 231 234 233 232 234 235 235 238 235 241 248 245 242 248 248 251 252 255 257 255 254 254 256 256 255 252
275 272 268 265 264 263 262 261 259 259 259 260 261 250 241 236 234 229 237 233 233 228 228 233 234 235 236 230 234 241 245 249 252 249 251 256 260 258 257 256 256 256 258 257 254
274 272 271 269 268 265 263 259 258 255 254 254 254 249 243 235 229 232 233 235 232 232 236 229 230 226 231 232 237 243 245 249 250 249 253 257 263 260 259 259 259 260 260 260 259
276 276 276 274 272 268 267 268 257 252 250 247 247 242 239 234 229 228 230 229 236 230 228 226 225 231 229 231 235 238 246 248 250 250 256 257 260 260 259 259 263 263 263 263 263
277 278 278 276 274 273 266 265 264 255 243 246 239 236 237 233 230 226 224 228 234 229 226 224 226 229 230 235 235 238 244 248 249 252 254 257 259 261 261 259 260 265 267 264 264
280 281 284 284 284 278 274 264 261 262 243 236 235 232 233 231 228 227 223 225 230 230 229 231 230 231 229 234 234 236 239 245 251 254 255 258 257 261 264 262 261 264 268 268 265
281 284 286 285 285 284 279 272 261 257 255 231 235 227 230 230 225 228 223 224 228 231 231 232 234 231 234 236 231 238 248 249 250 247 251 254 257 262 266 271 264 262 266 269 268
279 279 282 283 284 280 281 279 271 260 258 228 229 232 227 229 225 228 226 224 225 229 232 234 236 237 238 238 237 239 242 242 245 246 245 255 260 258 266 268 269 267 265 268 268
276 275 275 279 278 279 279 278 278 265 249 234 226 230 229 227 227 227 229 225 225 226 227 231 235 239 240 239 240 242 245 246 245 246 249 255 258 260 264 268 270 270 267 265 267
276 277 275 273 272 272 276 277 275 263 247 239 228 228 230 228 227 228 228 229 227 228 228 230 231 235 239 240 242 241 242 243 243 249 249 253 259 261 264 264 268 268 268 266 266
277 276 275 275 274 271 267 270 267 264 253 241 235 228 229 230 228 229 229 229 230 229 230 231 229 230 235 237 240 239 239 242 244 245 246 254 260 259 265 268 264 264 266 268 268
277 278 278 276 275 274 269 261 265 264 260 251 239 235 228 231 230 230 230 230 231 231 231 231 231 231 231 236 240 238 239 242 243 245 251 255 260 264 267 266 263 266 266 266 268
276 277 277 277 277 274 271 265 264 266 259 258 250 239 233 229 232 230 230 231 231 232 232 231 232 233 236 236 235 239 241 244 247 247 249 254 259 262 267 269 265 267 270 268 268
275 276 277 277 278 276 272 268 265 264 263 257 251 243 236 231 229 231 231 231 233 232 232 232 232 232 234 235 238 237 238 241 244 246 248 253 256 260 265 269 265 268 269 271 270
274 274 276 278 278 277 273 271 268 264 264 260 252 245 239 234 231 229 231 231 230 233 233 233 231 233 232 236 237 239 239 238 239 242 248 251 255 258 261 264 266 270 267 268 271
277 274 274 274 273 272 273 273 271 268 263 257 249 243 240 236 233 230 229 231 232 232 233 234 234 235 235 236 237 237 239 240 242 244 245 248 251 256 260 263 268 272 266 265 267
279 274 269 269 271 270 269 269 269 268 263 255 245 241 237 236 232 229 229 229 231 232 233 234 234 236 237 237 238 239 239 241 241 243 245 247 251 256 259 263 267 271 266 265 267
282 278 274 273 273 274 276 276 271 265 258 253 245 239 235 232 232 230 228 229 229 231 232 234 235 236 237 238 239 240 242 243 243 244 245 247 250 254 257 260 265 267 265 264 267
282 280 279 279 279 277 274 272 268 262 255 249 244 237 233 232 230 228 230 228 229 231 233 233 235 237 238 239 239 240 243 245 243 241 242 245 248 253 259 262 264 265 264 263 265
Height
10593 10591 10590 10589 10587 10584 10583 10582 10582 10583 10585 10587 10591 10594 10598 10603 10607 10611 10616 10622 10624 10628 10631 10634 10636 10638 10640 10641 10643 10648 10648 10649 10652 10656 10657 10659 10661 10663 10665 10667 10669 10672 10672 10678 10681
10580 10579 10579 10578 10577 10576 10574 10572 10571 10572 10573 10575 10578 10583 10587 10591 10596 10600 10605 10610 10613 10617 10620 10623 10626 10629 10630 10633 10635 10638 10638 10642 10645 10647 10649 10650 10652 10655 10657 10658 10660 10662 10665 10668 10670
10567 10566 10566 10566 10565 10565 10563 10563 10562 10561 10563 10565 10567 10570 10575 10579 10584 10589 10593 10599 10603 10606 10610 10613 10616 10619 10621 10624 10626 10628 10628 10634 10635 10637 10641 10642 10644 10646 10649 10650 10650 10653 10655 10657 10659
10552 10552 10551 10551 10553 10553 10553 10552 10552 10552 10551 10553 10556 10559 10562 10567 10572 10578 10582 10586 10591 10595 10599 10603 10606 10609 10612 10615 10617 10620 10622 10624 10627 10629 10632 10634 10636 10638 10640 10641 10644 10646 10646 10648 10650
10536 10535 10536 10536 10538 10540 10540 10541 10541 10542 10542 10543 10545 10549 10550 10554 10558 10565 10571 10574 10579 10584 10588 10592 10596 10600 10603 10605 10609 10610 10614 10615 10618 10621 10622 10625 10627 10629 10632 10633 10636 10638 10640 10640 10643
10521 10519 10520 10520 10522 10525 10527 10528 10529 10529 10531 10532 10534 10537 10539 10541 10546 10552 10558 10563 10567 10572 10577 10582 10585 10590 10593 10597 10600 10602 10604 10606 10609 10611 10613 10616 10619 10618 10626 10624 10626 10629 10632 10632 10634
10506 10504 10505 10504 10506 10509 10512 10514 10514 10516 10518 10521 10522 10525 10528 10530 10534 10538 10544 10551 10556 10561 10566 10571 10576 10580 10583 10588 10589 10592 10597 10598 10599 10602 10603 10608 10610 10609 10616 10617 10617 10619 10621 10623 10624
10490 10487 10486 10487 10486 10491 10493 10497 10499 10502 10504 10507 10510 10513 10516 10519 10522 10527 10533 10539 10544 10550 10554 10560 10565 10570 10574 10577 10581 10585 10588 10589 10590 10593 10595 10601 10598 10600 10606 10607 10609 10609 10612 10614 10615
10469 10468 10466 10465 10467 10471 10474 10477 10481 10485 10489 10494 10497 10501 10504 10507 10510 10515 10520 10526 10531 10537 10543 10549 10554 10558 10564 10568 10571 10575 10577 10579 10581 10585 10586 10591 10589 10590 10596 10597 10599 10600 10602 10604 10606
10447 10445 10443 10443 10446 10451 10452 10455 10460 10467 10473 10477 10483 10487 10490 10495 10500 10503 10507 10514 10519 10526 10531 10537 10543 10549 10553 10557 10559 10563 10566 10570 10572 10576 10577 10581 10579 10583 10586 10588 10588 10590 10592 10593 10594
10426 10424 10423 10422 10426 10428 10428 10431 10437 10447 10452 10460 10469 10473 10476 10481 10487 10491 10497 10501 10506 10512 10518 10526 10533 10534 10538 10544 10549 10554 10556 10561 10565 10561 10569 10571 10572 10574 10577 10578 10577 10580 10582 10582 10583
10415 10413 10411 10410 10412 10411 10412 10412 10416 10425 10434 10443 10451 10457 10462 10466 10473 10479 10485 10489 10493 10499 10507 10514 10520 10522 10529 10533 10539 10542 10547 10549 10554 10553 10558 10562 10563 10562 10569 10568 10567 10569 10571 10572 10573
10402 10400 10398 10399 10398 10397 10399 10398 10402 10406 10417 10423 10434 10443 10447 10451 10459 10466 10470 10476 10481 10488 10493 10500 10506 10512 10516 10522 10526 10531 10536 10538 10541 10541 10548 10551 10555 10555 10557 10558 10560 10559 10559 10562 10562
10390 10388 10387 10387 10385 10385 10384 10384 10387 10392 10402 10410 10418 10429 10431 10435 10445 10447 10457 10462 10467 10473 10480 10491 10494 10498 10504 10509 10515 10520 10521 10524 10527 10532 10539 10540 10549 10545 10545 10548 10550 10550 10549 10549 10552
10377 10377 10375 10372 10373 10370 10370 10370 10374 10381 10392 10395 10401 10409 10412 10419 10429 10430 10438 10446 10453 10459 10467 10475 10479 10484 10492 10497 10501 10507 10509 10512 10516 10522 10528 10530 10537 10537 10535 10535 10538 10540 10540 10539 10540
10364 10365 10363 10362 10360 10359 10358 10359 10363 10370 10380 10381 10383 10388 10396 10403 10412 10415 10422 10430 10438 10445 10453 10462 10465 10471 10478 10481 10489 10492 10495 10498 10504 10510 10519 10519 10521 10532 10524 10524 10527 10528 10530 10529 10530
10349 10349 10351 10348 10348 10347 10348 10348 10354 10357 10357 10361 10365 10368 10377 10385 10393 10398 10405 10415 10421 10429 10440 10443 10449 10455 10461 10468 10474 10478 10481 10487 10494 10499 10510 10506 10510 10518 10514 10513 10516 10518 10519 10519 10520
10332 10333 10335 10332 10333 10334 10335 10341 10340 10336 10335 10339 10345 10351 10357 10366 10374 10382 10389 10398 10405 10411 10420 10427 10435 10440 10448 10454 10458 10461 10469 10475 10481 10486 10493 10494 10502 10502 10502 10502 10506 10507 10508 10509 10509
10316 10316 10315 10314 10313 10317 10322 10326 10320 10316 10318 10321 10323 10331 10340 10348 10356 10364 10373 10380 10386 10396 10401 10408 10419 10425 10430 10436 10440 10450 10457 10458 10464 10471 10478 10484 10489 10488 10489 10489 10493 10497 10498 10497 10497
10302 10296 10297 10294 10293 10295 10302 10306 10302 10298 10304 10303 10306 10312 10323 10328 10335 10344 10352 10363 10371 10378 10382 10394 10400 10408 10413 10418 10427 10436 10440 10444 10452 10459 10465 10473 10476 10475 10474 10479 10482 10485 10486 10485 10485
10283 10278 10276 10274 10272 10272 10278 10281 10281 10279 10282 10286 10290 10295 10301 10307 10313 10324 10334 10345 10351 10356 10365 10374 10381 10393 10398 10407 10410 10417 10426 10430 10436 10444 10453 10459 10465 10462 10462 10465 10470 10473 10474 10474 10471
10260 10260 10254 10254 10247 10248 10252 10254 10259 10260 10256 10264 10266 10271 10276 10279 10289 10300 10314 10321 10331 10336 10346 10354 10362 10375 10380 10388 10395 10403 10413 10417 10423 10434 10439 10445 10453 10452 10449 10451 10457 10460 10464 10461 10458
10235 10235 10232 10227 10222 10220 10223 10228 10232 10236 10234 10241 10243 10246 10247 10255 10263 10277 10286 10300 10308 10315 10327 10333 10345 10353 10367 10372 10381 10389 10394 10399 10407 10414 10428 10432 10444 10439 10437 10436 10444 10450 10454 10448 10447
10205 10207 10206 10201 10194 10196 10194 10200 10200 10206 10209 10203 10216 10219 10223 10231 10238 10252 10262 10272 10283 10293 10302 10310 10327 10340 10347 10354 10362 10373 10377 10383 10390 10406 10416 10426 10426 10425 10421 10424 10432 10439 10442 10435 10439
10173 10175 10174 10176 10168 10167 10165 10170 10170 10171 10173 10177 10183 10185 10192 10201 10207 10224 10230 10245 10257 10268 10280 10292 10307 10316 10326 10334 10344 10353 10361 10368 10383 10392 10401 10410 10413 10409 10409 10413 10420 10427 10428 10424 10427
10139 10135 10139 10148 10142 10136 10130 10133 10134 10135 10139 10146 10152 10157 10166 10171 10172 10193 10206 10217 10230 10243 10259 10273 10286 10295 10305 10313 10327 10336 10347 10360 10371 10379 10393 10397 10400 10394 10392 10402 10408 10416 10414 10414 10417
10107 10107 10103 10115 10110 10106 10100 10096 10099 10101 10106 10113 10116 10124 10133 10139 10153 10175 10181 10198 10210 10224 10237 10252 10265 10276 10288 10292 10306 10329 10336 10342 10354 10365 10373 10385 10383 10376 10383 10390 10398 10404 10401 10405 10407